Regional Weather Roundup
Issued by NWS

Home | Current Version | Previous Version | Text Only | Print | Product List | Glossary On
Versions: 1 2 3 4 5 6 7 8 9 10 11 12 13 14 15 16 17 18 19 20 21 22 23 24 25 26 27 28 29 30 31 32 33 34 35 36 37 38 39 40 41 42 43 44 45 46 47 48 49 50
818
ASUS43 KTOP 090808
RWRKS

WEATHER ROUNDUP FOR KANSAS
NATIONAL WEATHER SERVICE GOODLAND KS
200 AM CST TUE FEB 09 2016

NOTE:  "FAIR" INDICATES FEW OR NO CLOUDS BELOW 12,000 FEET WITH NO
SIGNIFICANT WEATHER AND/OR OBSTRUCTIONS TO VISIBILITY.

KSZ001>006-013>018-027>032-041>047-090900-
NORTHWEST KANSAS

CITY           SKY/WX    TMP DP  RH WIND       PRES   REMARKS
GOODLAND       CLOUDY    25  21  85 W8        30.22F
HAYS           CLOUDY    34  18  51 NW13      30.20F WCI  25
HILL CITY      CLOUDY    34  23  64 NW12      30.22S WCI  25
RUSSELL        CLOUDY    32  21  64 NW12      30.17F WCI  23
$$

KSZ061>065-074>080-084>089-090900-
SOUTHWEST KANSAS

CITY           SKY/WX    TMP DP  RH WIND       PRES   REMARKS
DODGE CITY     CLEAR     31  20  63 NW14      30.23F WCI  21
ELKHART          N/A     38  20  48 NW15        N/A  WCI  29
GARDEN CITY    CLOUDY    28  23  81 NW9       30.23F
GREAT BEND     CLOUDY    30  18  59 NW10      30.20F WCI  21
LIBERAL        CLOUDY    27  18  69 W9        30.27F
PRATT          PTCLDY    29  18  63 NW9       30.19F
$$

KSZ066>073-081>083-090>101-090900-
SOUTHEAST KANSAS

CITY           SKY/WX    TMP DP  RH WIND       PRES   REMARKS
CHANUTE        MOCLDY    32  19  58 NW16      30.11F WCI  21
COFFEYVILLE    CLEAR     32  18  56 NW10      30.14F WCI  24
HUTCHINSON     CLEAR     29  18  63 W12       30.17F WCI  19
MEDICINE LODGE   N/A     27  17  66 NW5       30.22F
NEWTON         CLEAR     27  16  63 NW10      30.16F WCI  17
PARSONS        CLEAR     31  19  61 NW8       30.13F
WICHITA INTL   CLEAR     31  18  58 NW13      30.17F WCI  21
WICHITA JABRA  CLEAR     30  19  63 W14       30.16F WCI  19
WICHITA MCCONL CLEAR     30  19  62 NW8       30.16F
WINFIELD       CLEAR     27  19  72 W10       30.18F WCI  17
$$

KSZ007>012-019>026-033>040-048>060-102>105-090900-
NORTHEAST KANSAS

CITY           SKY/WX    TMP DP  RH WIND       PRES   REMARKS
CONCORDIA      CLEAR     28  17  63 NW10      30.16S WCI  19
EMPORIA        CLEAR     29  18  63 NW13      30.11S WCI  19
LAWRENCE       CLEAR     29  19  66 NW13      30.07F WCI  19
MANHATTAN      MOCLDY    31  20  63 W7        30.14F
MARYSVILLE     PTCLDY    28  21  74 NW13      30.12S WCI  18
OLATHE IND     PTCLDY    29  18  63 NW21G26   30.05F WCI  16
OLATHE EXE     CLEAR     27  15  61 NW12      30.04F WCI  17
SALINA         CLEAR     32  17  54 NW12      30.18S WCI  23
TOPEKA BILLARD MOCLDY    33  19  56 NW17G24   30.09S WCI  22
TOPEKA FORBES  MOCLDY    33  20  58 NW18G29   30.08R WCI  22
$$




USA.gov is the U.S. government's official web portal to all federal, state and local government web resources and services.